TimeMST,TemperatureF,Dew PointF,Humidity,Sea Level PressureIn,VisibilityMPH,Wind Direction,Wind SpeedMPH,Gust SpeedMPH,PrecipitationIn,Events,Conditions,WindDirDegrees,DateUTC
12:53 AM,16.0,12.0,84,30.22,9.0,West,4.6,-,N/A,,Overcast,260,2013-01-01 07:53:00
1:53 AM,12.0,8.1,84,30.24,7.0,West,4.6,-,N/A,,Mostly Cloudy,270,2013-01-01 08:53:00
2:53 AM,8.1,3.9,83,30.26,10.0,West,5.8,-,N/A,,Mostly Cloudy,270,2013-01-01 09:53:00
3:53 AM,10.0,5.0,80,30.25,8.0,WNW,8.1,-,N/A,,Overcast,290,2013-01-01 10:53:00
4:53 AM,8.1,3.0,80,30.26,10.0,WNW,12.7,-,N/A,,Partly Cloudy,290,2013-01-01 11:53:00
6:53 AM,6.1,1.0,80,30.30,10.0,WNW,12.7,-,N/A,,Clear,290,2013-01-01 13:53:00
7:53 AM,7.0,1.9,80,30.31,10.0,WNW,10.4,-,N/A,,Clear,300,2013-01-01 14:53:00
8:53 AM,14.0,7.0,74,30.30,10.0,WNW,12.7,-,N/A,,Clear,300,2013-01-01 15:53:00
9:53 AM,19.9,10.0,65,30.30,10.0,NW,15.0,-,N/A,,Clear,310,2013-01-01 16:53:00
10:53 AM,21.9,10.0,60,30.28,10.0,NW,13.8,-,N/A,,Clear,310,2013-01-01 17:53:00
11:53 AM,25.0,12.9,60,30.25,10.0,NW,15.0,-,N/A,,Clear,320,2013-01-01 18:53:00
12:53 PM,27.0,12.9,56,30.22,10.0,NW,12.7,-,N/A,,Clear,310,2013-01-01 19:53:00
1:53 PM,28.9,15.1,56,30.20,10.0,NW,12.7,-,N/A,,Clear,310,2013-01-01 20:53:00
2:53 PM,28.9,15.1,56,30.21,10.0,WNW,9.2,-,N/A,,Clear,300,2013-01-01 21:53:00
3:53 PM,26.1,12.9,58,30.20,10.0,West,10.4,-,N/A,,Clear,270,2013-01-01 22:53:00
4:53 PM,17.1,9.0,71,30.24,10.0,West,10.4,-,N/A,,Clear,270,2013-01-01 23:53:00
5:53 PM,18.0,9.0,68,30.25,10.0,West,12.7,-,N/A,,Clear,270,2013-01-02 00:53:00
6:53 PM,17.1,9.0,71,30.26,10.0,WNW,15.0,-,N/A,,Clear,290,2013-01-02 01:53:00
7:53 PM,16.0,7.0,68,30.26,10.0,WNW,15.0,-,N/A,,Clear,290,2013-01-02 02:53:00
8:53 PM,17.1,7.0,65,30.23,10.0,WNW,16.1,24.2,N/A,,Clear,290,2013-01-02 03:53:00
9:53 PM,21.0,10.9,65,30.21,10.0,West,13.8,-,N/A,,Overcast,280,2013-01-02 04:53:00
10:53 PM,25.0,16.0,69,30.20,10.0,WNW,17.3,-,N/A,,Overcast,300,2013-01-02 05:53:00
11:53 PM,24.1,19.0,81,30.19,10.0,WNW,18.4,-,0.00,,Overcast,300,2013-01-02 06:53:00